Regional Weather Roundup
Issued by NWS Charleston, WV

Home | Current Version | Previous Version | Graphics & Text | Print | Product List | Glossary On
Versions: 1 2 3 4 5 6 7 8 9 10 11 12 13 14 15 16 17 18 19 20 21 22 23 24 25 26 27 28 29 30 31 32 33 34 35 36 37 38 39 40 41 42 43 44 45 46 47 48 49 50
000
ASUS41 KRLX 292210
RWRRLX
West Virginia Regional Weather Roundup
National Weather Service Charleston WV
600 PM EDT WED JUL 29 2015

Note: "fair" indicates few or no clouds below 12,000 feet with no
significant weather and/or obstructions to visibility.

WVZ003-292300-
Northern Panhandle of West Virginia

CITY           SKY/WX    TMP DP  RH WIND       PRES   REMARKS
WHEELING       MOSUNNY   90  69  50 VRB6      29.94S
$$

WVZ009-292300-
Northwest West Virginia

CITY           SKY/WX    TMP DP  RH WIND       PRES   REMARKS
PARKERSBURG    MOSUNNY   89  71  55 W5        29.96R
$$

WVZ006-292300-
Western West Virginia

CITY           SKY/WX    TMP DP  RH WIND       PRES   REMARKS
HUNTINGTON     SUNNY     89  72  56 W8        29.94R HX  96
$$

WVZ015-292300-
West Central West Virginia

CITY           SKY/WX    TMP DP  RH WIND       PRES   REMARKS
CHARLESTON     MOSUNNY   86  74  67 SE6       29.94S
$$

WVZ022-031-292300-
North Central West Virginia

CITY           SKY/WX    TMP DP  RH WIND       PRES   REMARKS
CLARKSBURG     MOSUNNY   87  72  60 VRB3      29.94S
MORGANTOWN     PTSUNNY   91  67  44 SW6       29.95S
$$

WVZ025-035-042-045-292300-
Southern West Virginia

CITY           SKY/WX    TMP DP  RH WIND       PRES   REMARKS
BECKLEY        PTSUNNY   82  68  62 SW6       30.06S
LOGAN            N/A     86  73  66 CALM      29.97R
BLUEFIELD      CLOUDY    74  67  78 E3        30.09F
LEWISBURG      CLOUDY    82  66  57 S3        30.05S
$$

WVZ047-292300-
Northern Mountains of West Virginia

CITY           SKY/WX    TMP DP  RH WIND       PRES   REMARKS
ELKINS         PTSUNNY   86  68  54 W5        30.01S
$$

WVZ052-292300-
Eastern Panhandle of West Virginia

CITY           SKY/WX    TMP DP  RH WIND       PRES   REMARKS
MARTINSBURG    MOSUNNY   86  73  65 SE7       29.93F
PETERSBURG     LGT RAIN N/A N/A N/A CALM      29.96S
$$



USA.gov is the U.S. government's official web portal to all federal, state and local government web resources and services.